SCP
0 0 0 0 0 0 0 0 0 0 0 0 0 0 0 0 0 0 0 0 0 0 0 0 0 0 0 0 0 0 0 0 0 0 0 1 1 1 0 1 1 1 1
0 0 0 0 0 0 0 0 0 0 0 0 0 0 0 0 0 0 0 0 0 0 0 0 0 0 0 0 0 0 0 0 0 0 0 0 1 1 1 0 1 1 1
0 0 0 0 0 0 0 0 0 0 0 0 0 0 0 0 0 0 0 0 0 0 0 0 0 0 0 0 0 0 0 0 0 0 0 0 0 1 1 0 0 1 0
0 0 0 0 0 0 0 0 0 0 0 0 0 0 0 0 0 0 0 0 0 0 0 0 0 0 0 0 0 0 0 0 0 0 0 0 0 0 1 1 0 0 0
0 0 0 0 0 0 0 0 0 0 0 0 0 0 0 0 0 0 0 0 0 0 0 0 0 0 0 0 0 0 0 0 0 0 0 0 0 0 0 0 1 1 0
0 0 0 0 0 0 0 0 0 0 0 0 0 0 0 0 0 0 0 0 0 0 0 0 0 0 0 0 0 0 0 0 0 0 0 0 0 0 0 0 0 1 1
0 0 0 0 0 0 0 0 0 0 0 0 0 0 0 0 -0 0 -0 0 0 0 0 0 0 0 0 0 0 0 0 0 0 0 0 0 0 0 0 0 0 0 1
0 0 0 0 0 0 0 0 0 0 0 0 0 -0 -0 0 0 0 0 0 0 0 0 0 0 0 0 0 0 0 0 0 0 0 0 0 0 0 0 0 0 0 0
0 0 0 0 0 0 0 0 0 0 0 0 0 -0 -0 0 -0 -0 0 0 0 0 0 0 0 0 0 0 0 0 0 0 0 0 0 0 0 0 0 0 0 0 0
0 0 0 0 0 0 0 0 0 0 0 0 0 0 0 0 -0 -0 0 0 0 0 0 0 0 0 0 0 0 0 0 0 0 0 0 0 0 0 0 0 0 0 0
0 0 0 0 0 0 0 0 0 0 0 0 0 0 0 0 0 0 0 0 0 0 0 0 0 0 0 0 0 0 -0 -0 -0 0 0 0 0 0 0 0 0 0 0
0 0 0 0 0 0 0 0 0 0 0 0 0 0 0 0 0 0 0 0 0 0 0 0 0 0 0 0 -0 -0 -0 -0 -0 -0 -0 0 0 0 0 0 0 0 0
0 0 0 0 0 0 0 0 0 0 0 0 0 0 0 0 0 0 0 0 0 0 0 0 0 0 0 0 0 -0 -0 -0 -0 -0 -0 -0 -0 0 0 0 0 0 0
0 0 0 0 0 0 0 0 0 0 0 0 0 0 0 0 0 0 0 0 0 0 0 0 0 0 0 0 0 0 0 -0 -0 -0 -0 -0 -0 -0 0 0 0 0 0
0 0 0 0 0 0 0 0 0 0 0 0 0 0 0 0 0 0 0 0 0 0 0 0 0 0 0 0 0 0 0 0 -0 -0 0 0 -0 -0 0 -0 0 0 0
0 0 0 0 0 0 0 0 0 0 0 0 0 0 0 0 0 0 0 0 0 0 0 0 0 0 0 0 0 0 0 0 0 0 0 0 0 0 0 0 0 0 0
0 0 0 0 0 0 0 0 0 0 0 0 0 0 0 0 0 0 0 0 0 0 0 0 0 0 0 0 0 0 0 0 0 0 0 0 0 0 0 0 0 0 0
0 0 0 0 0 0 0 0 0 0 0 0 0 0 0 0 0 0 0 0 0 0 0 0 0 0 0 0 0 0 0 0 0 0 0 0 0 0 0 0 0 0 0
0 0 0 0 0 0 0 0 0 0 0 0 0 0 0 0 0 0 0 0 0 0 0 0 0 0 0 0 0 0 0 0 0 0 0 0 0 0 0 0 0 0 0
0 0 0 0 0 0 0 0 0 0 0 0 0 0 0 0 0 0 0 0 0 0 0 0 0 0 0 0 0 0 0 0 0 0 0 0 0 0 0 0 0 0 0
0 0 0 0 0 0 0 0 0 0 0 0 0 0 0 0 0 0 0 0 0 0 0 0 0 0 0 0 0 0 0 0 0 0 0 0 0 0 0 0 0 0 0
0 0 0 0 0 0 0 0 0 0 0 0 0 0 0 0 0 0 0 0 0 0 0 0 0 0 0 0 0 0 0 0 0 0 0 0 0 0 0 0 0 0 0
0 0 0 0 0 0 0 0 0 0 0 0 0 0 0 0 0 0 0 0 0 0 0 0 0 0 0 0 0 0 0 0 0 0 0 0 0 0 0 0 0 0 0
0 0 0 0 0 0 0 0 0 0 0 0 0 0 0 0 0 0 0 0 0 0 0 0 0 0 0 0 0 0 0 0 0 0 0 0 0 0 0 0 0 0 0
0 0 0 0 0 0 0 0 0 0 0 0 0 0 0 0 0 0 0 0 0 0 0 0 0 0 0 0 0 0 0 0 0 0 0 0 0 0 0 0 0 0 0
0 0 0 0 0 0 0 0 0 0 0 0 0 0 0 0 0 0 0 0 0 0 0 0 0 0 0 0 0 0 0 0 0 0 0 0 0 0 0 0 0 0 0
Wind_Speed_500mb
26 25 24 24 25 25 26 26 27 28 28 27 27 27 26 25 26 27 26 28 31 31 31 31 33 33 33 35 36 39 41 48 51 44 43 44 52 52 56 57 54 56 61
31 28 28 26 26 27 29 29 30 31 33 31 29 28 27 26 27 29 31 29 32 34 34 34 37 38 36 36 38 40 42 45 50 53 48 47 47 53 57 60 61 58 63
38 34 31 28 27 27 27 28 29 32 34 34 34 31 32 31 31 30 33 32 30 33 33 34 32 32 31 33 36 40 42 43 46 53 56 53 53 50 54 59 63 64 64
41 36 33 30 28 27 26 27 29 34 37 40 40 36 35 36 33 30 29 27 25 26 28 29 24 24 30 31 32 34 39 42 43 44 54 60 59 59 54 56 61 66 67
47 40 36 33 29 27 27 28 31 36 39 42 42 41 41 40 39 33 22 25 20 23 29 31 35 37 32 35 33 29 32 35 40 36 38 41 56 61 58 54 59 62 68
50 44 41 36 32 28 29 31 34 36 40 46 46 44 40 34 36 24 31 51 31 33 34 34 35 35 36 28 47 48 46 46 48 48 53 45 48 60 64 59 54 60 65
53 48 43 37 32 29 31 33 35 37 38 43 50 49 41 40 25 20 65 24 50 42 38 41 39 45 53 56 57 58 56 53 54 57 56 57 59 59 73 77 66 53 59
56 52 47 41 34 32 34 37 38 38 39 41 41 44 33 33 20 58 28 58 39 31 38 45 56 62 65 70 61 63 67 68 65 66 66 67 67 69 67 75 83 70 59
61 57 52 44 37 35 37 38 38 37 36 37 34 23 15 14 71 53 61 37 48 58 62 59 74 76 72 73 70 72 68 69 72 72 71 73 76 75 73 72 75 89 75
67 64 57 49 43 40 41 40 39 38 35 35 36 30 31 36 26 44 47 77 72 79 86 86 82 77 84 81 78 76 74 78 79 78 82 81 80 85 86 82 74 78 93
71 67 61 54 48 44 42 40 40 39 39 37 37 37 38 41 44 45 65 72 93 93 96 90 95 92 82 82 80 84 84 85 86 86 86 89 91 88 91 94 92 84 81
74 71 64 57 51 47 42 40 41 40 41 41 40 40 40 44 52 53 71 84 92 97 94 105 95 89 89 87 90 90 88 96 100 100 97 97 95 96 99 97 97 101 101
81 75 66 61 54 47 43 42 41 43 43 43 44 44 44 47 51 58 68 88 97 112 113 95 92 81 91 85 94 99 110 113 111 111 110 106 103 101 101 101 90 89 99
80 69 64 61 56 49 45 44 45 45 45 45 47 48 48 50 52 53 61 71 99 99 112 88 92 84 95 97 104 110 116 118 120 119 101 83 95 98 106 109 109 90 86
77 70 68 64 57 51 49 48 48 47 47 48 50 51 51 52 54 57 60 61 66 70 130 86 98 102 109 114 120 119 122 125 125 122 118 107 98 97 100 96 108 109 87
81 77 72 65 58 53 50 49 49 49 50 50 52 53 52 54 57 59 61 64 67 73 100 125 126 122 121 123 123 121 122 123 125 119 112 107 103 98 93 97 96 102 101
84 80 73 66 60 55 51 51 51 51 52 52 53 54 53 55 61 64 68 71 74 74 91 150 128 127 126 126 128 124 119 118 120 109 97 91 91 94 98 94 95 99 99
83 80 75 69 62 57 55 53 51 50 52 53 52 53 55 59 65 68 71 74 76 75 76 107 139 134 128 127 124 120 116 109 112 108 93 91 88 91 95 100 99 100 103
80 81 77 69 63 58 55 51 50 50 52 52 53 55 59 63 68 69 73 74 77 74 74 89 125 130 134 120 109 109 113 107 104 98 90 87 86 83 83 88 95 100 108
80 82 77 68 64 59 54 51 48 50 51 53 54 57 60 64 67 68 69 70 73 80 86 91 103 115 114 121 106 102 113 100 105 97 95 96 86 86 89 88 91 93 95
77 79 76 70 66 60 53 48 48 50 51 53 53 55 61 63 61 62 61 68 72 84 88 91 101 101 103 99 103 104 105 104 108 96 105 109 103 90 82 80 72 80 90
77 81 76 69 64 55 48 47 51 48 50 50 54 56 60 62 62 59 56 62 69 80 92 94 100 104 120 106 106 103 103 101 115 81 72 82 82 84 101 96 68 63 69
80 82 75 69 58 48 45 51 47 48 45 49 51 55 57 58 57 65 68 67 72 76 79 90 107 115 118 114 107 110 106 106 117 109 98 121 107 122 116 108 90 71 68
79 78 72 62 52 41 53 48 47 41 44 46 47 50 53 54 60 62 68 77 86 95 94 87 92 109 113 113 109 113 117 119 124 114 91 113 95 104 102 100 101 94 76
83 80 70 58 44 57 51 49 42 39 42 43 43 46 49 59 61 55 66 86 97 101 86 84 83 86 93 98 99 105 105 98 108 100 87 101 95 97 103 105 98 94 88
79 76 67 52 59 53 51 44 36 36 39 38 42 47 50 53 51 55 71 77 95 97 91 99 97 101 106 103 78 79 97 105 104 104 98 82 82 81 81 92 95 84 81
Wind_Direction_500mb
251 258 266 272 279 287 297 308 316 322 323 323 321 318 315 312 311 308 303 297 295 293 291 289 286 283 282 278 274 271 265 258 254 258 260 265 263 258 256 255 252 254 252
246 254 262 270 277 288 298 309 316 324 329 326 319 315 316 315 315 309 303 297 294 288 283 281 282 280 276 271 269 268 266 260 250 247 252 256 262 262 259 257 256 252 254
245 251 258 264 273 284 296 305 317 325 324 319 319 322 323 324 320 314 307 303 292 283 283 281 277 274 273 272 269 267 268 270 266 251 241 247 250 260 259 259 255 255 255
244 248 253 259 267 279 291 304 314 319 323 323 323 327 330 333 333 328 324 315 300 292 289 285 289 295 294 293 287 276 271 271 276 274 256 247 247 245 254 258 259 255 252
242 246 252 258 267 280 291 299 306 315 321 320 322 327 333 336 335 337 358 4 346 327 310 298 293 298 303 309 311 316 304 285 272 285 288 280 259 253 251 254 257 258 255
238 242 248 253 261 273 284 294 302 313 319 320 323 324 329 332 337 343 343 330 330 323 316 307 306 307 306 307 311 310 305 301 299 296 290 285 268 256 249 252 253 255 256
239 241 246 253 262 272 282 288 297 306 313 316 319 318 331 338 343 336 333 355 325 311 307 307 308 302 303 303 307 307 307 305 298 289 283 285 280 268 249 240 245 248 255
238 241 245 250 257 268 277 284 293 301 310 318 327 334 335 336 327 323 316 322 329 318 309 299 303 304 300 302 305 306 306 306 307 303 292 281 278 278 273 260 245 241 242
236 238 242 248 256 266 275 281 288 295 303 311 317 329 333 309 322 323 325 322 320 314 306 302 299 300 302 304 305 305 305 304 303 302 302 296 283 276 273 270 261 248 242
236 238 241 245 251 260 269 275 282 288 296 300 306 313 312 305 313 314 310 312 313 314 312 309 306 308 309 310 310 309 307 306 305 303 299 298 291 286 279 270 269 261 245
236 237 239 242 248 256 263 271 277 284 290 295 299 303 303 301 301 290 296 307 313 312 311 309 309 310 311 311 311 309 308 309 305 301 298 294 294 289 282 277 269 261 256
235 236 238 240 245 252 261 268 274 281 287 291 295 295 297 300 305 303 298 303 306 311 308 307 308 312 314 316 314 311 311 311 308 304 298 294 290 287 284 279 272 267 258
233 234 235 238 244 251 259 267 273 276 281 288 291 292 293 297 300 300 301 306 305 308 310 308 310 311 311 313 312 311 311 310 306 301 298 294 289 282 278 275 272 270 265
241 239 238 238 241 248 255 261 266 273 280 283 287 290 295 299 297 299 299 304 308 307 305 305 304 305 312 310 306 307 303 302 300 299 295 289 285 282 277 270 268 267 264
241 237 235 237 240 245 254 261 265 271 277 282 286 290 293 298 299 302 300 298 299 301 304 300 298 303 305 303 304 305 302 299 297 295 293 289 283 280 277 274 265 262 260
238 236 235 237 240 244 251 259 265 271 275 280 286 289 296 300 300 300 297 295 292 290 290 295 298 303 304 302 302 301 299 300 297 296 292 287 282 278 275 272 269 261 259
237 236 236 237 240 246 252 257 263 268 275 281 285 290 296 299 299 299 298 295 293 290 284 295 297 301 301 300 300 300 301 300 299 297 291 285 281 279 276 273 268 262 255
234 235 235 237 239 244 250 256 262 270 277 281 287 292 298 299 298 298 297 297 295 291 276 281 297 299 299 300 300 298 296 293 294 295 288 284 282 280 276 271 266 261 253
234 232 233 234 239 244 250 256 262 270 276 282 288 295 298 297 299 301 300 300 296 287 278 276 288 297 298 294 292 293 294 292 288 288 287 284 284 282 279 274 269 265 253
232 230 230 233 238 243 249 256 265 271 277 283 290 295 298 300 302 304 301 299 297 294 289 281 277 282 286 291 289 289 291 290 289 288 286 288 286 281 279 272 269 261 260
230 229 228 230 235 240 246 255 264 270 277 284 291 298 302 304 306 305 293 290 292 289 286 282 281 281 282 283 284 288 285 289 287 287 285 287 289 291 289 268 276 259 254
227 225 226 229 234 239 247 260 264 270 278 291 297 301 302 306 305 305 293 289 285 287 287 286 286 284 284 283 283 281 282 284 286 295 283 282 286 280 287 274 267 256 254
225 223 224 228 232 237 253 255 262 270 284 291 297 302 305 305 313 315 307 294 291 289 285 287 285 282 283 284 285 283 280 278 278 280 284 280 276 275 278 284 270 267 266
222 222 223 226 229 243 249 253 261 273 282 289 296 304 309 316 316 304 305 303 303 299 298 292 286 286 286 287 283 281 280 278 277 273 268 270 275 274 281 284 278 267 266
213 216 220 223 232 242 245 251 261 272 279 290 304 308 317 315 312 305 306 305 305 308 303 299 294 288 286 285 283 283 278 275 272 272 268 263 265 275 281 283 279 266 263
215 213 216 218 235 234 241 248 259 268 279 299 305 315 315 313 308 313 310 309 304 311 318 311 302 293 292 296 288 279 279 272 267 271 265 271 267 263 268 278 277 275 272
Wind_Speed_850mb
26 25 24 24 25 25 26 26 27 28 28 27 27 27 26 25 26 27 26 28 31 31 31 31 33 33 33 35 36 39 41 48 51 44 43 44 52 52 56 57 54 56 61
31 28 28 26 26 27 29 29 30 31 33 31 29 28 27 26 27 29 31 29 32 34 34 34 37 38 36 36 38 40 42 45 50 53 48 47 47 53 57 60 61 58 63
38 34 31 28 27 27 27 28 29 32 34 34 34 31 32 31 31 30 33 32 30 33 33 34 32 32 31 33 36 40 42 43 46 53 56 53 53 50 54 59 63 64 64
41 36 33 30 28 27 26 27 29 34 37 40 40 36 35 36 33 30 29 27 25 26 28 29 24 24 30 31 32 34 39 42 43 44 54 60 59 59 54 56 61 66 67
47 40 36 33 29 27 27 28 31 36 39 42 42 41 41 40 39 33 22 25 20 23 29 31 35 37 32 35 33 29 32 35 40 36 38 41 56 61 58 54 59 62 68
50 44 41 36 32 28 29 31 34 36 40 46 46 44 40 34 36 24 31 51 31 33 34 34 35 35 36 28 47 48 46 46 48 48 53 45 48 60 64 59 54 60 65
53 48 43 37 32 29 31 33 35 37 38 43 50 49 41 40 25 20 65 24 50 42 38 41 39 45 53 56 57 58 56 53 54 57 56 57 59 59 73 77 66 53 59
56 52 47 41 34 32 34 37 38 38 39 41 41 44 33 33 20 58 28 58 39 31 38 45 56 62 65 70 61 63 67 68 65 66 66 67 67 69 67 75 83 70 59
61 57 52 44 37 35 37 38 38 37 36 37 34 23 15 14 71 53 61 37 48 58 62 59 74 76 72 73 70 72 68 69 72 72 71 73 76 75 73 72 75 89 75
67 64 57 49 43 40 41 40 39 38 35 35 36 30 31 36 26 44 47 77 72 79 86 86 82 77 84 81 78 76 74 78 79 78 82 81 80 85 86 82 74 78 93
71 67 61 54 48 44 42 40 40 39 39 37 37 37 38 41 44 45 65 72 93 93 96 90 95 92 82 82 80 84 84 85 86 86 86 89 91 88 91 94 92 84 81
74 71 64 57 51 47 42 40 41 40 41 41 40 40 40 44 52 53 71 84 92 97 94 105 95 89 89 87 90 90 88 96 100 100 97 97 95 96 99 97 97 101 101
81 75 66 61 54 47 43 42 41 43 43 43 44 44 44 47 51 58 68 88 97 112 113 95 92 81 91 85 94 99 110 113 111 111 110 106 103 101 101 101 90 89 99
80 69 64 61 56 49 45 44 45 45 45 45 47 48 48 50 52 53 61 71 99 99 112 88 92 84 95 97 104 110 116 118 120 119 101 83 95 98 106 109 109 90 86
77 70 68 64 57 51 49 48 48 47 47 48 50 51 51 52 54 57 60 61 66 70 130 86 98 102 109 114 120 119 122 125 125 122 118 107 98 97 100 96 108 109 87
81 77 72 65 58 53 50 49 49 49 50 50 52 53 52 54 57 59 61 64 67 73 100 125 126 122 121 123 123 121 122 123 125 119 112 107 103 98 93 97 96 102 101
84 80 73 66 60 55 51 51 51 51 52 52 53 54 53 55 61 64 68 71 74 74 91 150 128 127 126 126 128 124 119 118 120 109 97 91 91 94 98 94 95 99 99
83 80 75 69 62 57 55 53 51 50 52 53 52 53 55 59 65 68 71 74 76 75 76 107 139 134 128 127 124 120 116 109 112 108 93 91 88 91 95 100 99 100 103
80 81 77 69 63 58 55 51 50 50 52 52 53 55 59 63 68 69 73 74 77 74 74 89 125 130 134 120 109 109 113 107 104 98 90 87 86 83 83 88 95 100 108
80 82 77 68 64 59 54 51 48 50 51 53 54 57 60 64 67 68 69 70 73 80 86 91 103 115 114 121 106 102 113 100 105 97 95 96 86 86 89 88 91 93 95
77 79 76 70 66 60 53 48 48 50 51 53 53 55 61 63 61 62 61 68 72 84 88 91 101 101 103 99 103 104 105 104 108 96 105 109 103 90 82 80 72 80 90
77 81 76 69 64 55 48 47 51 48 50 50 54 56 60 62 62 59 56 62 69 80 92 94 100 104 120 106 106 103 103 101 115 81 72 82 82 84 101 96 68 63 69
80 82 75 69 58 48 45 51 47 48 45 49 51 55 57 58 57 65 68 67 72 76 79 90 107 115 118 114 107 110 106 106 117 109 98 121 107 122 116 108 90 71 68
79 78 72 62 52 41 53 48 47 41 44 46 47 50 53 54 60 62 68 77 86 95 94 87 92 109 113 113 109 113 117 119 124 114 91 113 95 104 102 100 101 94 76
83 80 70 58 44 57 51 49 42 39 42 43 43 46 49 59 61 55 66 86 97 101 86 84 83 86 93 98 99 105 105 98 108 100 87 101 95 97 103 105 98 94 88
79 76 67 52 59 53 51 44 36 36 39 38 42 47 50 53 51 55 71 77 95 97 91 99 97 101 106 103 78 79 97 105 104 104 98 82 82 81 81 92 95 84 81
Wind_Direction_850mb
251 258 266 272 279 287 297 308 316 322 323 323 321 318 315 312 311 308 303 297 295 293 291 289 286 283 282 278 274 271 265 258 254 258 260 265 263 258 256 255 252 254 252
246 254 262 270 277 288 298 309 316 324 329 326 319 315 316 315 315 309 303 297 294 288 283 281 282 280 276 271 269 268 266 260 250 247 252 256 262 262 259 257 256 252 254
245 251 258 264 273 284 296 305 317 325 324 319 319 322 323 324 320 314 307 303 292 283 283 281 277 274 273 272 269 267 268 270 266 251 241 247 250 260 259 259 255 255 255
244 248 253 259 267 279 291 304 314 319 323 323 323 327 330 333 333 328 324 315 300 292 289 285 289 295 294 293 287 276 271 271 276 274 256 247 247 245 254 258 259 255 252
242 246 252 258 267 280 291 299 306 315 321 320 322 327 333 336 335 337 358 4 346 327 310 298 293 298 303 309 311 316 304 285 272 285 288 280 259 253 251 254 257 258 255
238 242 248 253 261 273 284 294 302 313 319 320 323 324 329 332 337 343 343 330 330 323 316 307 306 307 306 307 311 310 305 301 299 296 290 285 268 256 249 252 253 255 256
239 241 246 253 262 272 282 288 297 306 313 316 319 318 331 338 343 336 333 355 325 311 307 307 308 302 303 303 307 307 307 305 298 289 283 285 280 268 249 240 245 248 255
238 241 245 250 257 268 277 284 293 301 310 318 327 334 335 336 327 323 316 322 329 318 309 299 303 304 300 302 305 306 306 306 307 303 292 281 278 278 273 260 245 241 242
236 238 242 248 256 266 275 281 288 295 303 311 317 329 333 309 322 323 325 322 320 314 306 302 299 300 302 304 305 305 305 304 303 302 302 296 283 276 273 270 261 248 242
236 238 241 245 251 260 269 275 282 288 296 300 306 313 312 305 313 314 310 312 313 314 312 309 306 308 309 310 310 309 307 306 305 303 299 298 291 286 279 270 269 261 245
236 237 239 242 248 256 263 271 277 284 290 295 299 303 303 301 301 290 296 307 313 312 311 309 309 310 311 311 311 309 308 309 305 301 298 294 294 289 282 277 269 261 256
235 236 238 240 245 252 261 268 274 281 287 291 295 295 297 300 305 303 298 303 306 311 308 307 308 312 314 316 314 311 311 311 308 304 298 294 290 287 284 279 272 267 258
233 234 235 238 244 251 259 267 273 276 281 288 291 292 293 297 300 300 301 306 305 308 310 308 310 311 311 313 312 311 311 310 306 301 298 294 289 282 278 275 272 270 265
241 239 238 238 241 248 255 261 266 273 280 283 287 290 295 299 297 299 299 304 308 307 305 305 304 305 312 310 306 307 303 302 300 299 295 289 285 282 277 270 268 267 264
241 237 235 237 240 245 254 261 265 271 277 282 286 290 293 298 299 302 300 298 299 301 304 300 298 303 305 303 304 305 302 299 297 295 293 289 283 280 277 274 265 262 260
238 236 235 237 240 244 251 259 265 271 275 280 286 289 296 300 300 300 297 295 292 290 290 295 298 303 304 302 302 301 299 300 297 296 292 287 282 278 275 272 269 261 259
237 236 236 237 240 246 252 257 263 268 275 281 285 290 296 299 299 299 298 295 293 290 284 295 297 301 301 300 300 300 301 300 299 297 291 285 281 279 276 273 268 262 255
234 235 235 237 239 244 250 256 262 270 277 281 287 292 298 299 298 298 297 297 295 291 276 281 297 299 299 300 300 298 296 293 294 295 288 284 282 280 276 271 266 261 253
234 232 233 234 239 244 250 256 262 270 276 282 288 295 298 297 299 301 300 300 296 287 278 276 288 297 298 294 292 293 294 292 288 288 287 284 284 282 279 274 269 265 253
232 230 230 233 238 243 249 256 265 271 277 283 290 295 298 300 302 304 301 299 297 294 289 281 277 282 286 291 289 289 291 290 289 288 286 288 286 281 279 272 269 261 260
230 229 228 230 235 240 246 255 264 270 277 284 291 298 302 304 306 305 293 290 292 289 286 282 281 281 282 283 284 288 285 289 287 287 285 287 289 291 289 268 276 259 254
227 225 226 229 234 239 247 260 264 270 278 291 297 301 302 306 305 305 293 289 285 287 287 286 286 284 284 283 283 281 282 284 286 295 283 282 286 280 287 274 267 256 254
225 223 224 228 232 237 253 255 262 270 284 291 297 302 305 305 313 315 307 294 291 289 285 287 285 282 283 284 285 283 280 278 278 280 284 280 276 275 278 284 270 267 266
222 222 223 226 229 243 249 253 261 273 282 289 296 304 309 316 316 304 305 303 303 299 298 292 286 286 286 287 283 281 280 278 277 273 268 270 275 274 281 284 278 267 266
213 216 220 223 232 242 245 251 261 272 279 290 304 308 317 315 312 305 306 305 305 308 303 299 294 288 286 285 283 283 278 275 272 272 268 263 265 275 281 283 279 266 263
215 213 216 218 235 234 241 248 259 268 279 299 305 315 315 313 308 313 310 309 304 311 318 311 302 293 292 296 288 279 279 272 267 271 265 271 267 263 268 278 277 275 272